SCP
0 0 0 0 0 0 0 0 0 0 0 0 0 0 -0 0 0 0 0 0 0 0
0 0 0 0 0 0 0 0 0 0 0 0 0 0 -0 0 0 0 0 0 0 0
0 0 0 0 0 0 0 0 0 0 0 0 0 0 0 -0 0 -0 -0 -0 0 0
0 0 0 0 0 0 0 0 0 0 0 0 0 0 0 0 0 0 0 0 0 0
0 0 0 0 0 0 0 0 0 0 0 0 0 0 0 0 0 0 0 0 0 -0
0 0 0 0 0 0 0 0 0 0 0 0 0 0 0 0 0 0 0 0 -0 -0
0 0 0 0 0 0 0 0 0 0 0 0 0 0 0 0 0 0 0 0 0 0
0 0 0 0 0 0 0 0 0 0 0 0 0 0 0 0 0 0 0 0 0 0
0 0 0 -0 0 0 0 0 0 0 0 0 0 0 0 0 0 0 0 0 0 0
0 0 0 0 0 0 0 0 0 0 0 0 0 0 0 0 0 0 0 0 0 0
0 0 0 0 0 0 0 0 0 0 0 0 0 0 0 0 0 0 0 -0 -0 -0
0 0 0 0 0 0 0 0 0 0 0 0 0 0 -0 -0 0 0 -0 -0 -0 -0
0 0 0 0 0 -0 -0 -0 -0 -0 -0 -0 -0 -0 -0 -0 0 0 -0 0 -0 -0
0 -0 -0 -0 -0 -0 0 -0 -0 -0 -0 -0 -0 -0 -0 -0 0 0 -0 -0 0 0
Wind_Speed_500mb
17 19 25 27 25 26 34 35 32 29 29 32 40 36 40 27 29 36 36 44 41 42
11 12 17 23 26 29 38 29 33 28 28 29 42 38 41 32 36 27 29 34 39 46
9 11 12 15 22 29 30 28 26 28 26 22 27 27 36 33 23 34 39 38 41 36
7 11 13 13 17 20 21 23 28 31 31 33 32 38 46 48 45 39 41 40 37 42
6 8 16 16 16 16 20 24 22 29 27 27 28 32 38 44 40 39 43 43 43 45
10 11 16 19 17 20 22 24 22 25 27 29 31 31 32 29 29 37 42 41 41 42
9 16 18 25 20 20 21 21 21 21 23 26 28 27 26 25 27 29 29 25 25 28
7 19 24 24 23 22 20 18 20 20 23 21 17 15 13 15 16 17 21 23 23 24
9 17 27 27 26 22 23 20 19 19 18 17 16 17 18 17 18 20 19 17 19 20
13 18 24 29 28 25 23 22 21 19 15 12 10 12 15 17 18 18 19 20 20 19
18 21 24 27 29 29 27 24 23 21 18 13 12 13 15 16 18 19 19 18 17 16
22 23 24 26 27 28 29 27 23 19 17 16 16 17 19 20 20 19 18 17 15 13
26 25 25 25 25 25 25 24 25 25 23 22 21 20 20 20 20 16 14 12 9 6
33 30 27 27 28 27 26 26 25 23 22 21 19 17 15 13 12 11 11 11 10 12
Wind_Direction_500mb
70 66 66 63 77 100 128 123 134 146 109 122 134 140 143 146 121 123 155 176 186 185
78 91 77 76 68 86 123 125 126 137 145 130 128 133 168 160 159 135 120 157 158 170
99 132 106 94 96 95 93 101 105 117 110 120 127 145 151 146 153 162 144 146 159 163
119 142 140 122 116 110 114 114 111 112 110 112 100 110 115 116 112 125 135 146 154 160
178 150 164 145 134 117 115 110 107 117 122 125 118 118 125 119 119 122 130 135 142 146
193 174 168 164 148 146 134 144 122 118 128 132 130 126 126 128 125 128 129 129 133 133
193 185 175 180 171 159 158 147 146 149 136 130 129 128 128 130 133 136 138 135 136 131
208 190 184 181 182 173 160 155 152 143 143 148 151 146 144 140 143 141 142 140 140 143
216 189 186 185 185 182 181 174 167 160 151 145 149 155 163 173 177 179 176 177 176 180
212 190 184 191 195 195 195 193 191 190 199 210 203 190 192 193 190 187 186 191 197 201
211 194 188 188 191 197 203 205 207 208 213 212 198 182 172 164 157 155 158 160 161 166
216 203 195 190 191 193 197 200 198 191 176 161 152 151 146 142 142 144 145 144 144 142
210 211 200 189 183 179 178 176 174 170 166 161 156 149 144 141 141 143 149 152 149 154
205 206 199 190 184 177 175 176 175 174 174 170 168 164 165 171 174 183 203 212 230 252
Wind_Speed_850mb
17 19 25 27 25 26 34 35 32 29 29 32 40 36 40 27 29 36 36 44 41 42
11 12 17 23 26 29 38 29 33 28 28 29 42 38 41 32 36 27 29 34 39 46
9 11 12 15 22 29 30 28 26 28 26 22 27 27 36 33 23 34 39 38 41 36
7 11 13 13 17 20 21 23 28 31 31 33 32 38 46 48 45 39 41 40 37 42
6 8 16 16 16 16 20 24 22 29 27 27 28 32 38 44 40 39 43 43 43 45
10 11 16 19 17 20 22 24 22 25 27 29 31 31 32 29 29 37 42 41 41 42
9 16 18 25 20 20 21 21 21 21 23 26 28 27 26 25 27 29 29 25 25 28
7 19 24 24 23 22 20 18 20 20 23 21 17 15 13 15 16 17 21 23 23 24
9 17 27 27 26 22 23 20 19 19 18 17 16 17 18 17 18 20 19 17 19 20
13 18 24 29 28 25 23 22 21 19 15 12 10 12 15 17 18 18 19 20 20 19
18 21 24 27 29 29 27 24 23 21 18 13 12 13 15 16 18 19 19 18 17 16
22 23 24 26 27 28 29 27 23 19 17 16 16 17 19 20 20 19 18 17 15 13
26 25 25 25 25 25 25 24 25 25 23 22 21 20 20 20 20 16 14 12 9 6
33 30 27 27 28 27 26 26 25 23 22 21 19 17 15 13 12 11 11 11 10 12
Wind_Direction_850mb
70 66 66 63 77 100 128 123 134 146 109 122 134 140 143 146 121 123 155 176 186 185
78 91 77 76 68 86 123 125 126 137 145 130 128 133 168 160 159 135 120 157 158 170
99 132 106 94 96 95 93 101 105 117 110 120 127 145 151 146 153 162 144 146 159 163
119 142 140 122 116 110 114 114 111 112 110 112 100 110 115 116 112 125 135 146 154 160
178 150 164 145 134 117 115 110 107 117 122 125 118 118 125 119 119 122 130 135 142 146
193 174 168 164 148 146 134 144 122 118 128 132 130 126 126 128 125 128 129 129 133 133
193 185 175 180 171 159 158 147 146 149 136 130 129 128 128 130 133 136 138 135 136 131
208 190 184 181 182 173 160 155 152 143 143 148 151 146 144 140 143 141 142 140 140 143
216 189 186 185 185 182 181 174 167 160 151 145 149 155 163 173 177 179 176 177 176 180
212 190 184 191 195 195 195 193 191 190 199 210 203 190 192 193 190 187 186 191 197 201
211 194 188 188 191 197 203 205 207 208 213 212 198 182 172 164 157 155 158 160 161 166
216 203 195 190 191 193 197 200 198 191 176 161 152 151 146 142 142 144 145 144 144 142
210 211 200 189 183 179 178 176 174 170 166 161 156 149 144 141 141 143 149 152 149 154
205 206 199 190 184 177 175 176 175 174 174 170 168 164 165 171 174 183 203 212 230 252